Location: Borovka
(49.7741°N, 14.5280°E)
Time: 13:17:37
(UTC+00:00)

AO-7 - Visible Passes

Search period start: 10 March 2026 00:00
Search period end: 20 March 2026 00:00
Orbit: 1440 x 1458 km, 102.0° (Epoch: 10 March)

Date Brightness Start Highest point End Pass type
(mag) Time Alt. Az. Time Alt. Az. Time Alt. Az.
10 Mar ? 17:52:01 10° SSW 17:58:52 28° W 18:05:48 10° NW visible
11 Mar ? 03:55:02 10° NE 04:00:24 18° E 04:05:42 10° SE visible
11 Mar ? 18:49:28 10° WSW 18:52:50 13° W 18:56:14 10° WNW visible
12 Mar ? 04:46:31 10° NNE 04:54:08 37° E 05:01:41 10° SSE visible
12 Mar ? 17:44:31 10° SSW 17:51:37 31° W 17:58:49 10° NW visible
13 Mar ? 03:48:16 10° NE 03:53:05 16° E 03:57:52 10° ESE visible
13 Mar ? 18:41:19 10° WSW 18:45:30 14° W 18:49:44 10° NW visible
14 Mar ? 04:39:29 10° NNE 04:46:54 33° E 04:54:15 10° SSE visible
14 Mar ? 17:37:03 10° SSW 17:44:22 34° W 17:51:48 10° NNW visible
15 Mar ? 03:41:37 10° NE 03:45:46 14° E 03:49:53 10° ESE visible
15 Mar ? 18:33:21 10° WSW 18:38:11 16° W 18:43:04 10° NW visible
16 Mar ? 04:32:28 10° NE 04:39:40 30° E 04:46:47 10° SSE visible
16 Mar ? 17:29:36 10° SSW 17:37:08 37° W 17:44:46 10° NNW visible
17 Mar ? 03:35:09 10° ENE 03:38:26 13° E 03:41:43 10° ESE visible
17 Mar ? 18:25:31 10° SW 18:30:53 18° W 18:36:17 10° NW visible
18 Mar ? 04:25:29 10° NE 04:32:24 28° E 04:39:16 10° SSE visible
19 Mar ? 03:29:04 10° ENE 03:31:05 11° E 03:33:05 10° E visible
19 Mar ? 18:17:46 10° SW 18:23:34 20° W 18:29:27 10° NW visible
